Moab, UT

7:24 AM MDT on October 18, 2019 (GMT -0600)
Canyonlands

Weather History for KCNY - August, 2019

Change the Weather History Date:

Monday, August 12, 2019

  Actual Average Record
Temperature  
Mean Temperature 76 °F 78 °F  
Max Temperature 95 °F 93 °F 107 °F (1958)
Min Temperature 57 °F 63 °F 50 °F (1932)
Degree Days  
Heating Degree Days 0 0  
Month to date heating degree days 0 0  
Since 1 June heating degree days 23 17  
Since 1 July heating degree days 0 0  
Cooling Degree Days 11 13  
Month to date cooling degree days 202 172  
Year to date cooling degree days 975 965  
Since 1 June cooling degree days 960 901  
Growing Degree Days 26 (Base 50)    
Moisture  
Dew Point 22 °F    
Average Humidity 16    
Maximum Humidity 25    
Minimum Humidity 6    
Precipitation  
Precipitation 0.00 in 0.03 in 0.44 in (2003)
Month to date precipitation 0.02 0.32  
Year to date precipitation 6.17 4.86  
Sea Level Pressure  
Sea Level Pressure 29.88 in    
Wind  
Wind Speed 5 mph (WSW)    
Max Wind Speed 20 mph    
Max Gust Speed 25 mph    
Visibility 10 miles    
Events      
T = Trace of Precipitation, MM = Missing Value Source: NWS Daily Summary

Daily Weather History Graph

Daily Weather History Graph

Search for Another Location

Airport or City:

Astronomy

Aug. 12, 2019 Rise Set
Actual Time 6:30 AM MDT 8:17 PM MDT
Civil Twilight 6:01 AM MDT 8:46 PM MDT
Nautical Twilight 5:26 AM MDT 9:20 PM MDT
Astronomical Twilight 4:49 AM MDT 9:57 PM MDT
Moon 6:48 PM MDT (8/12) 3:43 AM MDT (8/12)
Length of Visible Light 14h 44m
Length of Day
13h 47m
Waxing Gibbous, 93% of the Moon is Illuminated
Aug 12
Waxing Gibbous
Aug 15
Full
Aug 23
Last Quarter
Aug 30
New
Sep 5
First Quarter

Hourly Weather History & Observations

Time (MDT) Temp. Dew Point Humidity Pressure Visibility Wind Dir Wind Speed Gust Speed Precip Events Conditions
12:53 AM 77.0 °F 18.0 °F 11% 29.81 in 10.0 mi West 12.7 mph - N/A   Clear
1:53 AM 72.0 °F 18.0 °F 13% 29.82 in 10.0 mi NW 5.8 mph - N/A   Clear
2:53 AM 69.1 °F 19.0 °F 15% 29.84 in 10.0 mi NNW 6.9 mph - N/A   Clear
3:53 AM 64.0 °F 19.9 °F 18% 29.87 in 10.0 mi SSW 5.8 mph - N/A   Clear
4:53 AM 64.9 °F 19.9 °F 18% 29.87 in 10.0 mi South 5.8 mph - N/A   Clear
5:53 AM 62.1 °F 19.9 °F 20% 29.90 in 10.0 mi Calm Calm - N/A   Clear
6:53 AM 60.1 °F 19.0 °F 20% 29.93 in 10.0 mi Calm Calm - N/A   Clear
7:53 AM 69.1 °F 23.0 °F 18% 29.93 in 10.0 mi Calm Calm - N/A   Clear
8:53 AM 75.9 °F 37.0 °F 24% 29.94 in 10.0 mi Calm Calm - N/A   Clear
9:53 AM 80.1 °F 37.0 °F 21% 29.95 in 10.0 mi Calm Calm - N/A   Clear
10:53 AM 84.0 °F 26.1 °F 12% 29.94 in 10.0 mi Calm Calm - N/A   Clear
11:53 AM 88.0 °F 23.0 °F 9% 29.92 in 10.0 mi Calm Calm - N/A   Clear
12:53 PM 90.0 °F 27.0 °F 10% 29.90 in 10.0 mi WSW 12.7 mph 23.0 mph N/A   Clear
1:53 PM 93.0 °F 25.0 °F 9% 29.88 in 10.0 mi WSW 17.3 mph 23.0 mph N/A   Clear
2:53 PM 93.0 °F 24.1 °F 8% 29.88 in 10.0 mi WNW 10.4 mph 17.3 mph N/A   Clear
3:53 PM 93.9 °F 17.1 °F 6% 29.87 in 10.0 mi South 17.3 mph 25.3 mph N/A   Clear
4:53 PM 93.9 °F 16.0 °F 6% 29.85 in 10.0 mi West 10.4 mph - N/A   Clear
5:53 PM 93.0 °F 18.0 °F 6% 29.85 in 10.0 mi WNW 11.5 mph 23.0 mph N/A   Clear
6:53 PM 91.9 °F 19.0 °F 7% 29.86 in 10.0 mi Variable 3.5 mph - N/A   Clear
7:53 PM 90.0 °F 19.0 °F 7% 29.83 in 10.0 mi Calm Calm - N/A   Clear
8:53 PM 82.0 °F 18.0 °F 9% 29.84 in 10.0 mi NE 4.6 mph - N/A   Clear
9:53 PM 73.9 °F 16.0 °F 11% 29.87 in 10.0 mi SW 3.5 mph - N/A   Clear
10:53 PM 70.0 °F 21.0 °F 16% 29.88 in 10.0 mi WSW 4.6 mph - N/A   Clear
11:53 PM 72.0 °F 19.0 °F 13% 29.89 in 10.0 mi Variable 3.5 mph - N/A   Clear